Tracking 25370 objects as of 25-Jan-2022
HD Live streaming from Space Station
objects crossing your sky now

AEROCUBE 14A

Track AEROCUBE 14A now!
10-day predictions


NORAD ID: 45114
Int'l Code: 2019-071D
Perigee: 446.9 km
Apogee: 460.8 km
Inclination: 51.6 °
Period: 93.5 minutes
Semi major axis: 6824 km
RCS: Unknown
Launch date: November 2, 2019
Source: United States (US)
Launch site: WALLOPS ISLAND (WLPIS)
aabbcc
Your satellite tracking list
Your tracking list is empty




NASA's NSSDC Master Catalog

Two Line Element Set (TLE):
1 45114U 19071D   22025.30069691  .00012203  00000-0  31219-3 0  9995
2 45114  51.6407  38.1431 0010184  23.5325 336.6124 15.39782063111310
Source of the keplerian elements: Caltech